SCP
0 0 0 0 0 0 -0 0 0 0 0 0 0 0 0 0 0 0 0 -0 -0 -0 -0 -0 -0 -0 -0 -0 -0 -0 -0 -0 -0 -0 -0 -0 -0 -0 -0 -0 -0 -0 -0 -0 -0 -0 -0 -0 -0
0 0 0 0 0 0 0 0 0 0 0 0 0 0 0 0 0 0 0 0 -0 0 -0 -0 -0 -0 -0 -0 -0 -0 -0 -0 -0 -0 -0 -0 0 0 0 -0 -0 -0 0 0 0 0 -0 -0 -0
-0 0 0 0 0 0 0 0 0 0 0 0 0 0 0 0 0 0 0 0 0 0 0 0 -0 -0 -0 -0 -0 -0 -0 -0 -0 -0 -0 0 0 0 0 0 0 0 0 0 0 0 0 0 0
0 0 0 0 -0 0 0 0 0 0 0 0 0 0 0 0 0 0 0 0 0 0 0 0 0 0 0 -0 -0 0 0 0 -0 -0 0 0 0 0 0 0 0 0 0 0 0 0 0 0 0
0 0 0 0 0 0 0 0 0 0 0 0 0 0 0 0 0 0 0 0 0 0 0 0 0 0 0 0 0 0 0 0 0 0 0 0 0 0 0 0 0 0 0 0 0 0 0 0 0
0 0 0 0 0 0 0 0 0 0 0 0 0 0 0 0 0 0 0 0 0 0 0 0 0 0 0 0 0 0 0 0 0 0 0 0 0 0 0 0 0 0 0 0 0 0 0 0 0
0 0 0 0 -0 0 0 0 0 0 0 0 0 0 0 0 0 0 0 0 0 0 0 0 0 0 0 0 0 0 0 0 0 0 0 0 0 0 0 0 0 0 0 0 0 0 0 0 0
0 0 0 0 0 0 0 0 0 0 0 0 0 0 0 0 0 0 0 0 0 0 0 0 0 0 0 0 0 0 0 0 0 0 0 0 0 0 0 0 0 0 0 0 0 0 0 0 0
0 0 0 0 0 0 0 0 0 0 0 0 0 0 0 0 0 0 0 0 0 0 0 0 0 0 0 0 0 0 0 0 0 0 0 0 0 0 0 0 0 0 0 0 0 0 0 0 0
0 0 0 0 0 0 0 0 0 0 0 0 0 0 0 0 0 0 0 0 0 0 0 0 0 0 0 0 0 0 0 0 0 0 0 0 0 0 0 0 0 0 0 0 0 0 0 0 0
0 0 0 0 0 0 0 0 0 0 0 0 0 0 0 0 0 0 0 0 0 0 0 0 0 0 0 0 0 0 0 0 0 0 0 0 0 0 0 0 0 0 0 0 0 0 0 0 0
0 0 0 0 0 0 0 0 0 0 0 0 0 0 0 0 0 0 0 0 0 0 0 0 0 0 0 0 0 0 0 0 0 0 0 0 0 0 0 0 0 0 0 0 0 0 0 0 0
0 0 0 0 0 0 0 0 0 0 0 0 0 0 0 0 0 0 0 0 0 0 0 0 0 0 0 0 0 0 0 0 0 0 0 0 0 0 0 0 0 0 0 0 0 0 0 0 0
0 0 0 0 0 0 0 0 0 0 0 0 0 0 0 0 0 0 0 0 0 0 0 0 0 0 0 0 0 0 0 0 0 0 0 0 0 0 0 0 0 0 0 0 0 0 0 0 -0
0 0 0 0 0 0 0 0 0 0 0 0 0 0 0 0 0 0 0 0 0 0 0 0 0 0 0 0 0 0 0 0 0 0 0 0 0 0 0 0 0 0 0 0 0 -0 0 0 0
0 0 0 0 0 0 0 0 0 0 0 0 0 0 0 0 0 0 0 0 0 0 0 0 0 0 0 0 0 0 0 0 0 0 0 0 0 0 0 0 0 0 0 0 0 0 0 -0 -0
0 0 0 0 0 0 0 0 0 0 0 0 0 0 0 0 0 0 0 0 0 0 0 0 0 0 0 0 0 0 0 0 0 0 0 0 0 0 0 0 0 0 0 0 0 0 0 -0 -0
0 0 0 0 0 0 0 0 0 0 0 0 0 0 0 0 0 0 0 0 0 0 0 0 0 0 0 0 0 0 0 0 0 0 0 0 0 0 0 0 0 0 0 0 0 0 0 -0 -0
0 0 0 0 0 0 0 0 0 0 0 0 0 0 0 0 0 0 0 0 0 0 0 0 0 0 0 0 0 0 0 0 0 0 0 0 0 0 0 0 0 0 0 0 0 0 0 0 -0
0 0 0 0 0 0 0 0 0 0 0 0 0 0 0 0 0 0 0 0 0 0 0 0 0 0 0 0 0 0 0 0 0 0 0 0 0 0 0 0 0 0 0 0 0 0 0 0 -0
0 0 0 0 0 0 0 0 0 0 0 0 0 0 0 0 0 0 0 0 0 0 0 0 0 0 0 0 0 0 0 0 0 0 0 0 0 0 0 0 0 0 0 0 0 0 0 0 0
0 0 0 0 0 0 0 -0 0 0 0 0 0 0 0 0 0 0 0 0 0 0 0 0 0 0 0 0 0 0 0 0 0 0 0 0 0 0 0 0 0 0 0 0 0 0 0 0 0
0 0 0 0 0 0 0 0 0 0 0 0 0 0 0 0 0 0 0 0 0 0 0 0 0 0 0 0 0 0 0 0 0 0 0 0 0 0 0 0 0 0 0 0 0 0 0 0 0
0 0 0 0 0 0 0 0 0 0 0 0 0 0 0 0 0 0 0 0 0 0 0 0 0 0 0 0 0 0 0 0 0 0 0 0 0 0 0 0 0 0 0 0 0 0 0 0 0
0 0 0 0 0 0 0 0 0 0 0 0 0 0 0 0 0 0 0 0 0 0 0 0 0 0 0 0 0 0 0 0 0 0 0 0 0 0 0 0 0 0 0 0 0 0 0 0 0
0 0 0 0 0 0 0 0 0 0 0 0 0 0 0 0 0 0 0 0 0 0 0 0 0 0 0 0 0 0 0 0 0 0 0 0 0 0 0 0 0 0 0 0 0 0 0 0 0
0 0 0 0 0 0 0 0 0 0 0 0 0 0 0 0 0 0 0 0 0 0 0 0 0 0 0 0 0 0 0 0 0 0 0 0 0 0 0 0 0 0 0 0 0 0 0 0 0
0 0 0 0 0 0 0 0 0 0 0 0 0 0 0 0 0 0 0 0 0 0 0 0 0 0 0 0 0 0 0 0 0 0 0 0 0 0 0 0 0 0 0 0 0 0 0 0 0
0 0 0 0 0 0 0 0 0 0 0 0 0 0 0 0 0 0 0 0 0 0 0 0 0 0 0 0 0 0 0 0 0 0 0 0 0 0 0 0 0 0 0 0 0 0 0 0 0
0 0 0 0 0 0 0 0 0 0 0 0 0 0 0 0 0 0 0 0 0 0 0 0 0 0 0 0 0 0 0 0 0 0 0 0 0 0 0 0 0 0 0 0 0 0 0 0 0
Wind_Speed_500mb
9 5 6 4 3 6 11 10 9 11 1 8 10 9 4 8 3 5 22 39 34 24 22 20 17 16 13 12 10 9 9 8 5 6 11 10 14 16 17 17 19 19 18 17 18 20 22 24 26
9 5 5 10 5 8 1 15 8 11 15 13 8 11 4 6 1 8 22 38 35 27 22 17 16 12 10 8 5 7 10 11 13 16 19 22 20 21 21 21 19 20 20 21 22 24 25 24 24
6 6 6 6 8 12 5 8 15 22 17 12 5 4 7 6 2 11 16 38 34 28 22 17 11 8 6 5 6 8 10 11 14 19 20 21 22 23 23 24 25 25 27 28 29 29 29 29 30
9 4 12 5 20 8 8 8 36 21 8 9 4 6 7 15 17 19 23 38 35 30 24 19 15 11 7 3 1 2 4 4 8 9 11 13 14 17 19 21 22 23 26 27 32 35 35 35 35
3 10 7 11 21 6 10 8 22 16 22 24 16 8 7 15 29 21 25 41 37 32 25 19 14 9 7 6 5 6 6 7 9 11 13 14 15 15 18 20 21 23 26 28 32 31 31 33 37
10 9 7 11 9 9 7 11 14 22 24 20 17 19 9 18 26 27 30 40 40 34 27 22 20 18 15 12 10 9 7 7 8 8 8 8 9 10 10 10 11 14 15 18 21 25 29 32 34
7 5 13 18 16 7 9 17 16 20 22 22 12 6 11 24 25 30 33 40 40 36 33 31 29 25 21 16 14 11 9 6 4 2 3 5 7 10 11 14 17 17 19 19 19 20 21 25 27
8 5 11 12 7 9 9 13 6 18 12 12 29 11 10 30 30 32 37 41 44 41 40 39 34 31 24 20 16 12 8 5 4 4 5 7 9 10 13 17 20 24 25 26 26 27 27 27 26
6 5 11 14 2 1 13 9 13 13 13 18 23 19 14 18 29 34 41 44 47 48 48 48 42 36 30 24 19 15 14 12 9 10 11 11 8 9 13 17 21 23 26 28 29 29 29 27 27
9 6 9 6 11 7 4 18 16 10 21 25 28 32 35 33 37 41 47 50 52 54 55 54 48 42 36 32 27 22 20 18 18 17 15 13 11 11 16 18 20 22 23 25 26 26 27 27 27
11 9 2 9 11 11 13 20 23 17 16 35 42 50 51 49 50 50 52 52 53 54 56 57 52 48 41 39 32 28 27 26 24 21 18 17 14 15 17 18 19 21 22 25 27 30 31 32 33
8 31 36 9 8 8 8 11 18 40 46 12 16 32 49 59 56 55 58 57 56 57 57 59 57 53 48 45 38 36 34 31 29 26 23 21 19 19 20 20 21 23 24 28 32 33 34 34 34
16 23 30 27 20 24 25 34 19 44 47 52 48 47 41 51 58 57 55 55 56 61 61 62 61 58 54 47 45 42 40 37 34 30 27 24 23 22 20 20 22 23 27 32 36 39 39 36 34
14 22 36 28 34 25 15 18 24 34 30 55 56 55 56 60 64 60 62 64 64 65 67 67 63 61 58 52 51 47 44 41 37 34 29 26 25 23 21 22 21 23 29 36 41 44 43 43 43
12 15 19 31 37 13 12 20 28 74 33 35 38 57 66 66 63 71 67 67 65 70 73 73 66 64 62 58 56 52 50 46 43 39 35 30 29 26 25 22 21 25 31 39 44 45 46 46 47
7 10 9 9 25 17 22 24 20 32 48 61 49 47 53 65 68 71 68 66 62 68 77 75 69 66 66 63 61 56 53 49 47 43 35 31 29 26 24 23 23 26 32 37 43 45 45 48 50
17 13 18 18 26 14 19 16 14 11 19 33 44 49 56 65 72 70 70 66 66 71 78 76 71 69 68 65 60 57 54 51 48 42 37 33 32 30 26 24 25 29 34 38 42 44 46 49 53
14 13 21 26 14 15 16 33 26 47 30 46 62 64 70 74 76 74 75 69 69 74 78 74 70 70 66 65 62 61 58 53 51 46 42 39 38 31 26 27 29 33 38 40 43 43 43 48 55
26 31 34 43 18 20 31 37 30 40 50 43 60 70 69 72 71 68 73 69 68 74 78 76 74 72 69 72 70 68 63 58 55 52 50 46 42 32 31 34 37 37 39 41 43 43 45 46 53
19 26 43 39 21 16 19 27 22 18 40 64 59 70 77 50 44 55 67 67 71 79 80 77 76 70 73 75 72 68 62 60 56 55 55 51 44 38 39 40 39 39 39 41 42 43 44 45 47
25 22 31 33 23 11 8 14 23 18 55 60 70 80 70 54 49 57 64 66 72 83 85 81 78 72 74 75 72 70 66 65 65 64 61 56 49 44 41 41 41 42 42 41 41 42 41 44 46
45 21 25 26 12 13 9 26 17 12 20 21 53 79 58 46 42 57 65 67 75 79 79 78 76 73 74 76 80 83 81 78 72 64 59 59 54 50 47 43 45 44 42 42 44 44 42 46 49
15 4 5 7 11 12 9 17 13 19 19 22 24 67 65 40 50 61 66 65 67 72 76 75 75 74 75 79 82 81 79 75 67 65 65 62 58 54 50 47 45 44 43 44 46 45 43 45 52
8 2 6 4 4 20 23 23 6 15 17 12 18 57 55 34 35 44 55 57 65 68 72 75 76 76 78 81 82 79 80 78 76 75 69 64 62 58 52 49 47 45 45 46 48 48 48 52 56
7 6 7 7 2 28 21 21 35 11 16 21 24 52 37 41 36 38 54 65 69 72 76 78 77 79 80 83 80 79 79 82 84 81 74 70 67 62 56 53 49 46 45 48 50 51 52 55 58
18 18 11 15 16 40 10 19 12 22 25 46 62 64 31 40 38 40 52 63 69 72 76 79 79 81 82 82 75 76 80 84 87 85 79 75 70 64 60 54 49 47 46 49 52 53 55 58 60
11 13 8 4 5 7 26 26 17 16 24 22 23 27 29 34 36 45 51 59 68 72 75 78 78 81 82 79 73 75 80 87 90 88 82 77 72 67 60 54 50 48 49 51 53 53 56 58 61
7 0 5 3 5 15 38 31 31 13 25 19 12 18 29 30 36 40 50 62 71 71 72 75 81 85 82 80 79 77 79 85 90 89 86 80 74 67 60 56 52 49 49 52 52 53 54 58 60
3 8 10 3 11 19 27 24 6 9 7 15 15 14 16 23 34 41 49 61 73 71 73 80 84 86 88 89 85 85 82 84 91 92 87 80 73 68 62 54 51 50 51 50 52 54 54 58 59
10 24 28 23 36 10 24 50 16 5 15 22 18 21 30 45 45 49 49 57 69 75 77 81 84 91 91 93 90 88 87 86 90 91 87 78 72 65 57 53 52 51 50 51 52 52 55 58 61
Wind_Direction_500mb
151 131 67 282 273 212 253 150 48 101 123 66 330 84 348 52 336 192 178 182 190 183 191 191 191 188 199 221 207 202 216 224 235 266 291 291 301 301 304 305 308 310 308 307 306 299 298 305 309
157 73 14 285 248 257 318 99 144 148 77 109 13 42 23 62 100 167 163 174 185 186 200 186 186 193 197 225 253 269 261 261 269 284 293 295 301 304 303 304 302 303 301 297 293 295 298 299 300
160 137 267 203 235 263 39 124 143 90 108 135 157 218 329 90 153 186 193 185 183 195 198 197 196 201 204 218 204 220 229 242 255 267 282 290 292 291 290 288 288 288 288 289 291 293 295 298 297
92 272 267 261 267 319 35 84 112 115 137 193 191 190 200 196 179 225 201 185 195 202 198 199 189 178 171 173 191 261 271 270 270 276 280 283 287 292 293 292 291 292 290 292 293 294 295 294 295
137 263 256 226 248 114 99 345 131 161 164 188 182 188 206 203 228 237 202 195 199 210 207 204 194 196 209 229 234 247 253 262 277 289 294 296 294 293 291 294 296 296 297 299 297 295 293 292 288
265 244 278 260 327 120 111 173 187 187 180 135 186 263 196 230 228 218 203 200 207 212 214 205 205 210 216 222 225 226 238 249 261 271 284 297 306 311 319 321 319 317 314 313 312 311 307 300 294
259 290 261 286 308 322 155 149 213 215 206 176 188 243 201 227 232 215 205 209 214 214 215 215 217 222 222 219 225 229 234 242 243 303 348 344 349 355 0 356 357 352 348 344 338 331 324 319 316
283 284 273 269 281 333 107 155 210 252 242 196 198 220 202 239 225 211 206 215 219 216 219 223 222 228 228 227 228 232 241 249 291 311 319 328 327 330 352 351 350 347 349 347 344 339 339 334 330
235 270 266 276 41 352 128 217 198 222 232 205 208 223 241 229 214 209 209 218 221 221 222 223 226 231 228 228 231 236 245 256 268 280 288 285 302 333 342 344 345 346 341 341 338 339 335 331 329
226 237 265 39 341 288 204 208 235 207 230 232 229 235 238 236 227 221 222 225 226 228 224 226 227 229 229 227 227 231 241 246 255 258 257 268 294 316 322 329 334 336 336 333 328 322 319 317 316
223 231 328 296 272 289 273 269 236 240 252 234 223 227 238 237 233 232 234 235 236 233 228 229 227 227 225 228 226 229 233 236 241 246 253 264 277 293 300 305 316 323 324 323 321 319 317 315 315
270 246 255 275 249 244 239 258 258 233 234 264 240 223 234 230 234 237 237 235 232 232 234 231 228 228 226 229 228 231 233 234 237 241 246 253 263 271 283 298 309 314 320 324 324 323 320 318 316
229 261 280 260 248 243 260 262 251 255 249 253 255 258 244 238 241 246 244 239 232 232 234 233 228 226 225 225 227 228 231 232 234 236 241 252 263 273 283 293 300 311 322 323 327 327 323 319 317
352 304 289 280 239 226 226 264 245 257 258 246 243 245 244 242 244 244 240 234 229 230 232 235 229 225 224 223 226 228 230 233 233 238 240 251 259 263 270 279 289 304 320 327 328 327 327 328 328
293 303 273 249 234 232 213 277 229 255 235 240 239 238 245 246 241 243 244 238 233 228 232 233 230 224 222 221 225 227 230 231 233 235 237 244 250 254 265 277 292 310 321 325 327 328 328 328 327
230 233 281 274 194 162 147 264 226 259 235 234 239 245 247 246 251 244 242 240 236 229 230 232 229 223 221 221 225 228 230 230 230 232 236 240 248 256 264 275 291 312 318 321 324 326 325 327 327
227 249 236 270 176 135 180 253 277 205 200 240 240 243 253 258 252 242 239 235 236 230 231 230 229 223 221 221 223 226 228 228 231 235 240 244 251 254 262 278 297 306 308 315 322 324 325 325 326
254 253 284 278 201 196 205 250 264 267 252 254 264 262 259 257 254 250 235 231 233 230 228 231 228 224 219 221 222 225 228 229 233 237 239 243 248 253 264 276 285 294 301 312 318 320 323 327 327
258 265 263 270 267 184 229 245 248 252 271 261 262 265 262 262 263 255 236 222 225 223 223 227 227 224 219 219 221 225 230 232 235 237 238 240 244 250 261 270 280 288 298 307 312 316 321 327 327
270 278 272 277 300 178 256 258 259 254 260 261 263 268 269 261 251 242 221 215 220 219 220 225 228 225 223 225 226 229 232 233 237 236 238 240 242 246 257 269 279 285 292 299 308 312 319 323 327
241 241 260 267 280 226 284 263 249 239 250 260 263 264 263 256 244 219 209 218 219 217 220 224 228 226 225 226 226 226 227 231 232 236 238 237 238 244 253 266 276 282 289 298 304 306 311 313 320
269 245 259 270 272 245 124 287 220 227 258 230 251 269 266 260 232 225 216 219 220 221 222 224 226 228 227 226 227 230 234 235 239 241 239 235 238 242 250 261 270 278 287 295 298 300 306 305 311
264 117 281 291 268 312 225 275 237 189 239 235 242 258 270 269 244 216 220 226 225 220 220 220 223 226 228 227 231 234 234 236 238 237 235 237 238 240 249 260 271 278 285 289 292 296 299 302 304
131 290 239 241 223 256 209 216 203 193 212 227 229 252 260 255 217 215 222 221 217 216 216 219 220 223 226 229 232 235 236 234 231 233 234 235 237 241 248 257 265 273 280 285 290 294 299 300 298
192 144 292 298 220 261 180 231 246 194 183 192 215 238 242 221 224 212 211 211 212 216 215 217 219 223 225 229 233 236 237 234 234 237 237 236 237 241 247 255 264 269 275 282 288 291 296 297 300
181 178 175 231 253 278 152 252 243 214 228 226 230 245 208 206 221 227 223 218 214 218 217 219 221 223 225 229 233 239 238 237 236 237 237 238 240 242 247 254 261 266 272 279 285 292 297 300 302
180 199 200 257 74 314 268 280 293 247 228 220 202 178 193 206 224 224 224 223 222 223 224 224 224 225 226 228 232 238 238 239 237 235 235 237 238 240 246 252 258 264 271 278 284 291 300 301 300
191 249 108 227 252 244 277 280 271 235 224 217 182 209 223 238 235 235 231 234 232 232 232 229 227 228 228 229 233 238 240 240 238 236 234 235 236 238 243 248 255 262 270 277 286 294 296 296 296
160 241 226 248 186 240 266 275 200 88 47 164 214 229 234 224 241 247 242 238 240 240 238 233 230 230 229 232 235 237 241 240 238 236 234 233 233 235 239 246 254 261 269 277 286 291 292 293 296
240 220 206 225 238 241 237 258 260 109 168 152 170 194 274 273 256 253 247 246 243 241 240 238 235 234 235 235 235 236 240 241 237 234 232 231 231 234 239 247 255 264 272 279 286 289 294 295 296
Wind_Speed_850mb
9 5 6 4 3 6 11 10 9 11 1 8 10 9 4 8 3 5 22 39 34 24 22 20 17 16 13 12 10 9 9 8 5 6 11 10 14 16 17 17 19 19 18 17 18 20 22 24 26
9 5 5 10 5 8 1 15 8 11 15 13 8 11 4 6 1 8 22 38 35 27 22 17 16 12 10 8 5 7 10 11 13 16 19 22 20 21 21 21 19 20 20 21 22 24 25 24 24
6 6 6 6 8 12 5 8 15 22 17 12 5 4 7 6 2 11 16 38 34 28 22 17 11 8 6 5 6 8 10 11 14 19 20 21 22 23 23 24 25 25 27 28 29 29 29 29 30
9 4 12 5 20 8 8 8 36 21 8 9 4 6 7 15 17 19 23 38 35 30 24 19 15 11 7 3 1 2 4 4 8 9 11 13 14 17 19 21 22 23 26 27 32 35 35 35 35
3 10 7 11 21 6 10 8 22 16 22 24 16 8 7 15 29 21 25 41 37 32 25 19 14 9 7 6 5 6 6 7 9 11 13 14 15 15 18 20 21 23 26 28 32 31 31 33 37
10 9 7 11 9 9 7 11 14 22 24 20 17 19 9 18 26 27 30 40 40 34 27 22 20 18 15 12 10 9 7 7 8 8 8 8 9 10 10 10 11 14 15 18 21 25 29 32 34
7 5 13 18 16 7 9 17 16 20 22 22 12 6 11 24 25 30 33 40 40 36 33 31 29 25 21 16 14 11 9 6 4 2 3 5 7 10 11 14 17 17 19 19 19 20 21 25 27
8 5 11 12 7 9 9 13 6 18 12 12 29 11 10 30 30 32 37 41 44 41 40 39 34 31 24 20 16 12 8 5 4 4 5 7 9 10 13 17 20 24 25 26 26 27 27 27 26
6 5 11 14 2 1 13 9 13 13 13 18 23 19 14 18 29 34 41 44 47 48 48 48 42 36 30 24 19 15 14 12 9 10 11 11 8 9 13 17 21 23 26 28 29 29 29 27 27
9 6 9 6 11 7 4 18 16 10 21 25 28 32 35 33 37 41 47 50 52 54 55 54 48 42 36 32 27 22 20 18 18 17 15 13 11 11 16 18 20 22 23 25 26 26 27 27 27
11 9 2 9 11 11 13 20 23 17 16 35 42 50 51 49 50 50 52 52 53 54 56 57 52 48 41 39 32 28 27 26 24 21 18 17 14 15 17 18 19 21 22 25 27 30 31 32 33
8 31 36 9 8 8 8 11 18 40 46 12 16 32 49 59 56 55 58 57 56 57 57 59 57 53 48 45 38 36 34 31 29 26 23 21 19 19 20 20 21 23 24 28 32 33 34 34 34
16 23 30 27 20 24 25 34 19 44 47 52 48 47 41 51 58 57 55 55 56 61 61 62 61 58 54 47 45 42 40 37 34 30 27 24 23 22 20 20 22 23 27 32 36 39 39 36 34
14 22 36 28 34 25 15 18 24 34 30 55 56 55 56 60 64 60 62 64 64 65 67 67 63 61 58 52 51 47 44 41 37 34 29 26 25 23 21 22 21 23 29 36 41 44 43 43 43
12 15 19 31 37 13 12 20 28 74 33 35 38 57 66 66 63 71 67 67 65 70 73 73 66 64 62 58 56 52 50 46 43 39 35 30 29 26 25 22 21 25 31 39 44 45 46 46 47
7 10 9 9 25 17 22 24 20 32 48 61 49 47 53 65 68 71 68 66 62 68 77 75 69 66 66 63 61 56 53 49 47 43 35 31 29 26 24 23 23 26 32 37 43 45 45 48 50
17 13 18 18 26 14 19 16 14 11 19 33 44 49 56 65 72 70 70 66 66 71 78 76 71 69 68 65 60 57 54 51 48 42 37 33 32 30 26 24 25 29 34 38 42 44 46 49 53
14 13 21 26 14 15 16 33 26 47 30 46 62 64 70 74 76 74 75 69 69 74 78 74 70 70 66 65 62 61 58 53 51 46 42 39 38 31 26 27 29 33 38 40 43 43 43 48 55
26 31 34 43 18 20 31 37 30 40 50 43 60 70 69 72 71 68 73 69 68 74 78 76 74 72 69 72 70 68 63 58 55 52 50 46 42 32 31 34 37 37 39 41 43 43 45 46 53
19 26 43 39 21 16 19 27 22 18 40 64 59 70 77 50 44 55 67 67 71 79 80 77 76 70 73 75 72 68 62 60 56 55 55 51 44 38 39 40 39 39 39 41 42 43 44 45 47
25 22 31 33 23 11 8 14 23 18 55 60 70 80 70 54 49 57 64 66 72 83 85 81 78 72 74 75 72 70 66 65 65 64 61 56 49 44 41 41 41 42 42 41 41 42 41 44 46
45 21 25 26 12 13 9 26 17 12 20 21 53 79 58 46 42 57 65 67 75 79 79 78 76 73 74 76 80 83 81 78 72 64 59 59 54 50 47 43 45 44 42 42 44 44 42 46 49
15 4 5 7 11 12 9 17 13 19 19 22 24 67 65 40 50 61 66 65 67 72 76 75 75 74 75 79 82 81 79 75 67 65 65 62 58 54 50 47 45 44 43 44 46 45 43 45 52
8 2 6 4 4 20 23 23 6 15 17 12 18 57 55 34 35 44 55 57 65 68 72 75 76 76 78 81 82 79 80 78 76 75 69 64 62 58 52 49 47 45 45 46 48 48 48 52 56
7 6 7 7 2 28 21 21 35 11 16 21 24 52 37 41 36 38 54 65 69 72 76 78 77 79 80 83 80 79 79 82 84 81 74 70 67 62 56 53 49 46 45 48 50 51 52 55 58
18 18 11 15 16 40 10 19 12 22 25 46 62 64 31 40 38 40 52 63 69 72 76 79 79 81 82 82 75 76 80 84 87 85 79 75 70 64 60 54 49 47 46 49 52 53 55 58 60
11 13 8 4 5 7 26 26 17 16 24 22 23 27 29 34 36 45 51 59 68 72 75 78 78 81 82 79 73 75 80 87 90 88 82 77 72 67 60 54 50 48 49 51 53 53 56 58 61
7 0 5 3 5 15 38 31 31 13 25 19 12 18 29 30 36 40 50 62 71 71 72 75 81 85 82 80 79 77 79 85 90 89 86 80 74 67 60 56 52 49 49 52 52 53 54 58 60
3 8 10 3 11 19 27 24 6 9 7 15 15 14 16 23 34 41 49 61 73 71 73 80 84 86 88 89 85 85 82 84 91 92 87 80 73 68 62 54 51 50 51 50 52 54 54 58 59
10 24 28 23 36 10 24 50 16 5 15 22 18 21 30 45 45 49 49 57 69 75 77 81 84 91 91 93 90 88 87 86 90 91 87 78 72 65 57 53 52 51 50 51 52 52 55 58 61
Wind_Direction_850mb
151 131 67 282 273 212 253 150 48 101 123 66 330 84 348 52 336 192 178 182 190 183 191 191 191 188 199 221 207 202 216 224 235 266 291 291 301 301 304 305 308 310 308 307 306 299 298 305 309
157 73 14 285 248 257 318 99 144 148 77 109 13 42 23 62 100 167 163 174 185 186 200 186 186 193 197 225 253 269 261 261 269 284 293 295 301 304 303 304 302 303 301 297 293 295 298 299 300
160 137 267 203 235 263 39 124 143 90 108 135 157 218 329 90 153 186 193 185 183 195 198 197 196 201 204 218 204 220 229 242 255 267 282 290 292 291 290 288 288 288 288 289 291 293 295 298 297
92 272 267 261 267 319 35 84 112 115 137 193 191 190 200 196 179 225 201 185 195 202 198 199 189 178 171 173 191 261 271 270 270 276 280 283 287 292 293 292 291 292 290 292 293 294 295 294 295
137 263 256 226 248 114 99 345 131 161 164 188 182 188 206 203 228 237 202 195 199 210 207 204 194 196 209 229 234 247 253 262 277 289 294 296 294 293 291 294 296 296 297 299 297 295 293 292 288
265 244 278 260 327 120 111 173 187 187 180 135 186 263 196 230 228 218 203 200 207 212 214 205 205 210 216 222 225 226 238 249 261 271 284 297 306 311 319 321 319 317 314 313 312 311 307 300 294
259 290 261 286 308 322 155 149 213 215 206 176 188 243 201 227 232 215 205 209 214 214 215 215 217 222 222 219 225 229 234 242 243 303 348 344 349 355 0 356 357 352 348 344 338 331 324 319 316
283 284 273 269 281 333 107 155 210 252 242 196 198 220 202 239 225 211 206 215 219 216 219 223 222 228 228 227 228 232 241 249 291 311 319 328 327 330 352 351 350 347 349 347 344 339 339 334 330
235 270 266 276 41 352 128 217 198 222 232 205 208 223 241 229 214 209 209 218 221 221 222 223 226 231 228 228 231 236 245 256 268 280 288 285 302 333 342 344 345 346 341 341 338 339 335 331 329
226 237 265 39 341 288 204 208 235 207 230 232 229 235 238 236 227 221 222 225 226 228 224 226 227 229 229 227 227 231 241 246 255 258 257 268 294 316 322 329 334 336 336 333 328 322 319 317 316
223 231 328 296 272 289 273 269 236 240 252 234 223 227 238 237 233 232 234 235 236 233 228 229 227 227 225 228 226 229 233 236 241 246 253 264 277 293 300 305 316 323 324 323 321 319 317 315 315
270 246 255 275 249 244 239 258 258 233 234 264 240 223 234 230 234 237 237 235 232 232 234 231 228 228 226 229 228 231 233 234 237 241 246 253 263 271 283 298 309 314 320 324 324 323 320 318 316
229 261 280 260 248 243 260 262 251 255 249 253 255 258 244 238 241 246 244 239 232 232 234 233 228 226 225 225 227 228 231 232 234 236 241 252 263 273 283 293 300 311 322 323 327 327 323 319 317
352 304 289 280 239 226 226 264 245 257 258 246 243 245 244 242 244 244 240 234 229 230 232 235 229 225 224 223 226 228 230 233 233 238 240 251 259 263 270 279 289 304 320 327 328 327 327 328 328
293 303 273 249 234 232 213 277 229 255 235 240 239 238 245 246 241 243 244 238 233 228 232 233 230 224 222 221 225 227 230 231 233 235 237 244 250 254 265 277 292 310 321 325 327 328 328 328 327
230 233 281 274 194 162 147 264 226 259 235 234 239 245 247 246 251 244 242 240 236 229 230 232 229 223 221 221 225 228 230 230 230 232 236 240 248 256 264 275 291 312 318 321 324 326 325 327 327
227 249 236 270 176 135 180 253 277 205 200 240 240 243 253 258 252 242 239 235 236 230 231 230 229 223 221 221 223 226 228 228 231 235 240 244 251 254 262 278 297 306 308 315 322 324 325 325 326
254 253 284 278 201 196 205 250 264 267 252 254 264 262 259 257 254 250 235 231 233 230 228 231 228 224 219 221 222 225 228 229 233 237 239 243 248 253 264 276 285 294 301 312 318 320 323 327 327
258 265 263 270 267 184 229 245 248 252 271 261 262 265 262 262 263 255 236 222 225 223 223 227 227 224 219 219 221 225 230 232 235 237 238 240 244 250 261 270 280 288 298 307 312 316 321 327 327
270 278 272 277 300 178 256 258 259 254 260 261 263 268 269 261 251 242 221 215 220 219 220 225 228 225 223 225 226 229 232 233 237 236 238 240 242 246 257 269 279 285 292 299 308 312 319 323 327
241 241 260 267 280 226 284 263 249 239 250 260 263 264 263 256 244 219 209 218 219 217 220 224 228 226 225 226 226 226 227 231 232 236 238 237 238 244 253 266 276 282 289 298 304 306 311 313 320
269 245 259 270 272 245 124 287 220 227 258 230 251 269 266 260 232 225 216 219 220 221 222 224 226 228 227 226 227 230 234 235 239 241 239 235 238 242 250 261 270 278 287 295 298 300 306 305 311
264 117 281 291 268 312 225 275 237 189 239 235 242 258 270 269 244 216 220 226 225 220 220 220 223 226 228 227 231 234 234 236 238 237 235 237 238 240 249 260 271 278 285 289 292 296 299 302 304
131 290 239 241 223 256 209 216 203 193 212 227 229 252 260 255 217 215 222 221 217 216 216 219 220 223 226 229 232 235 236 234 231 233 234 235 237 241 248 257 265 273 280 285 290 294 299 300 298
192 144 292 298 220 261 180 231 246 194 183 192 215 238 242 221 224 212 211 211 212 216 215 217 219 223 225 229 233 236 237 234 234 237 237 236 237 241 247 255 264 269 275 282 288 291 296 297 300
181 178 175 231 253 278 152 252 243 214 228 226 230 245 208 206 221 227 223 218 214 218 217 219 221 223 225 229 233 239 238 237 236 237 237 238 240 242 247 254 261 266 272 279 285 292 297 300 302
180 199 200 257 74 314 268 280 293 247 228 220 202 178 193 206 224 224 224 223 222 223 224 224 224 225 226 228 232 238 238 239 237 235 235 237 238 240 246 252 258 264 271 278 284 291 300 301 300
191 249 108 227 252 244 277 280 271 235 224 217 182 209 223 238 235 235 231 234 232 232 232 229 227 228 228 229 233 238 240 240 238 236 234 235 236 238 243 248 255 262 270 277 286 294 296 296 296
160 241 226 248 186 240 266 275 200 88 47 164 214 229 234 224 241 247 242 238 240 240 238 233 230 230 229 232 235 237 241 240 238 236 234 233 233 235 239 246 254 261 269 277 286 291 292 293 296
240 220 206 225 238 241 237 258 260 109 168 152 170 194 274 273 256 253 247 246 243 241 240 238 235 234 235 235 235 236 240 241 237 234 232 231 231 234 239 247 255 264 272 279 286 289 294 295 296